Location: Unspecified
(36.4339°N, 0.0000°E)
Time: 03:58:04
(UTC+00:00)

ITAMSAT 1 - Visible Passes

Search period start: 05 April 2026 00:00
Search period end: 15 April 2026 00:00
Orbit: 781 x 793 km, 98.7° (Epoch: 29 March)

Date Brightness Start Highest point End Pass type
(mag) Time Alt. Az. Time Alt. Az. Time Alt. Az.
5 Apr 9.4 20:20:43 18° NE 20:20:43 18° NE 20:23:07 10° NNE visible
5 Apr 9.7 22:01:23 24° NW 22:01:23 24° NW 22:03:33 10° NNW visible
6 Apr 9.1 21:30:33 33° N 21:30:33 33° N 21:33:23 10° NNW visible
7 Apr 8.9 20:59:44 31° NNE 20:59:44 31° NNE 21:02:49 10° N visible
7 Apr 10.4 22:40:23 13° NW 22:40:23 13° NW 22:41:12 10° NW visible
8 Apr 9.2 20:28:53 21° NE 20:28:53 21° NE 20:31:47 10° NNE visible
8 Apr 9.7 22:09:33 23° NW 22:09:33 23° NW 22:11:47 10° NNW visible
9 Apr 9.7 19:58:04 12° ENE 19:58:04 12° ENE 19:59:38 10° NE visible
9 Apr 9.0 21:38:44 35° NNW 21:38:44 35° NNW 21:41:44 10° NNW visible
10 Apr 8.7 21:07:54 37° NNE 21:07:54 37° NNE 21:11:16 10° N visible
10 Apr 10.4 22:48:34 12° WNW 22:48:34 12° WNW 22:49:06 10° NW visible
11 Apr 9.0 20:37:05 25° NE 20:37:05 25° NE 20:40:23 10° NNE visible
11 Apr 9.8 22:17:44 22° NW 22:17:44 22° NW 22:19:58 10° NW visible
12 Apr 9.5 20:06:15 14° ENE 20:06:15 14° ENE 20:08:44 10° NNE visible
12 Apr 9.0 21:46:54 36° NNW 21:46:54 36° NNW 21:50:03 10° NNW visible
13 Apr 8.5 21:16:05 43° NNE 21:16:05 43° NNE 21:19:42 10° N visible
13 Apr 10.5 22:56:44 10° WNW 22:56:44 10° WNW 22:56:48 10° WNW visible
14 Apr 8.8 20:45:16 30° NE 20:45:16 30° NE 20:48:56 10° N visible
14 Apr 9.9 22:25:55 20° WNW 22:25:55 20° WNW 22:28:07 10° NW visible
